Tracking 19832 objects as of 25-Aug-2019
HD Live streaming from Space Station
objects crossing your sky now

FENGYUN 1C DEB

Track FENGYUN 1C DEB now!
10-day predictions


NORAD ID: 30882
Int'l Code: 1999-025AXU
Perigee: 543.1 km
Apogee: 888.4 km
Inclination: 98.2 °
Period: 99.0 minutes
Semi major axis: 7086 km
RCS: 0.0116 m2 (small)
Launch date: May 10, 1999
Source: People's Republic of China (PRC)
Launch site: Taiyaun Space Center, China (TSC)

Note: This is SATELLITE DEBRIS
aabbcc
Your satellite tracking list
Your tracking list is empty




NASA's NSSDC Master Catalog

Two Line Element Set (TLE):
1 30882U 99025AXU 19234.42503824  .00000201  00000-0  40130-4 0  9998
2 30882  98.2432 297.7419 0243630  92.1565 270.7548 14.55229501660342
Source of the keplerian elements: AFSPC